Total_Precipitation_Accumulation
0.72 1.01 1.08 0.91 0.92 0.99 0.91 0.92 0.97 0.90 0.76 0.87 0.88 0.82 0.86 0.80 0.65 0.51 0.49 0.53 0.49 0.45 0.46 0.39 0.36 0.43 0.43 0.36 0.33 0.37 0.43 0.46 0.47 0.53 0.66 0.76 0.84 1.01 1.21 1.26 1.33 1.47 1.49 1.50
0.79 0.83 0.67 0.69 0.75 0.84 0.84 0.83 0.87 0.77 0.66 0.70 0.79 0.84 0.82 0.74 0.67 0.55 0.48 0.40 0.39 0.39 0.37 0.32 0.30 0.34 0.35 0.33 0.31 0.32 0.40 0.50 0.55 0.58 0.72 0.86 1.08 1.20 1.34 1.49 1.49 1.52 1.56 1.60
0.68 0.59 0.53 0.61 0.72 0.79 0.81 0.75 0.70 0.73 0.69 0.68 0.73 0.94 0.88 0.80 0.66 0.55 0.46 0.37 0.30 0.33 0.32 0.25 0.27 0.29 0.30 0.30 0.36 0.37 0.46 0.67 0.85 0.93 1.14 1.42 1.67 1.73 1.66 1.66 1.72 1.70 1.73 1.79
0.73 0.53 0.52 0.62 0.65 0.68 0.83 0.58 0.50 0.62 0.75 0.86 0.71 0.99 0.85 0.78 0.70 0.54 0.46 0.41 0.33 0.35 0.39 0.30 0.28 0.31 0.29 0.32 0.43 0.60 0.80 1.09 1.32 1.43 1.60 1.82 1.93 1.95 1.88 1.89 1.89 1.87 1.77 1.70
0.72 0.56 0.55 0.62 0.58 0.53 0.65 0.52 0.52 0.62 0.73 0.76 0.64 0.77 0.72 0.63 0.69 0.61 0.55 0.49 0.44 0.43 0.42 0.43 0.42 0.47 0.48 0.57 0.78 1.10 1.35 1.55 1.68 1.71 1.78 1.96 2.11 2.26 2.27 2.16 2.02 1.91 1.88 1.80
0.64 0.55 0.58 0.63 0.55 0.47 0.53 0.59 0.63 0.65 0.74 0.86 0.60 0.60 0.72 0.60 0.58 0.61 0.62 0.53 0.48 0.46 0.47 0.57 0.69 0.82 0.91 1.00 1.19 1.42 1.56 1.70 1.67 1.64 1.67 1.79 1.97 2.12 2.15 2.18 2.15 2.02 1.89 1.78
0.65 0.61 0.56 0.52 0.58 0.56 0.58 0.76 0.96 0.98 0.95 0.82 0.50 0.59 0.62 0.44 0.41 0.49 0.55 0.54 0.51 0.47 0.55 0.76 0.92 1.08 1.19 1.28 1.38 1.42 1.41 1.47 1.48 1.45 1.46 1.52 1.57 1.60 1.67 1.78 1.72 1.58 1.47 1.42
0.53 0.59 0.49 0.42 0.44 0.51 0.54 0.58 0.84 0.95 0.84 0.72 0.55 0.72 0.64 0.46 0.43 0.41 0.45 0.53 0.61 0.70 0.82 0.95 1.06 1.17 1.21 1.33 1.38 1.34 1.29 1.28 1.21 1.16 1.17 1.17 1.20 1.24 1.26 1.28 1.24 1.17 1.12 1.09
0.39 0.45 0.38 0.34 0.32 0.38 0.45 0.45 0.48 0.65 0.63 0.67 0.62 0.72 0.65 0.45 0.42 0.41 0.42 0.52 0.66 0.83 1.08 1.25 1.26 1.16 1.09 1.14 1.22 1.19 1.14 1.07 0.99 0.92 0.94 0.95 1.01 1.03 0.99 0.97 0.92 0.91 0.85 0.84
0.30 0.42 0.41 0.37 0.35 0.36 0.35 0.39 0.49 0.72 0.85 0.86 0.72 0.79 0.74 0.56 0.50 0.47 0.50 0.62 0.79 0.95 1.16 1.43 1.54 1.42 1.15 0.99 1.03 0.99 0.97 0.98 0.96 0.91 0.92 0.91 0.82 0.74 0.73 0.75 0.69 0.68 0.73 0.76
0.22 0.35 0.39 0.38 0.38 0.38 0.35 0.41 0.51 0.66 0.68 0.90 1.14 1.13 0.84 0.73 0.67 0.66 0.70 0.76 0.83 1.07 1.36 1.49 1.50 1.37 1.20 0.94 0.89 0.87 0.84 0.85 0.91 0.84 0.87 0.89 0.78 0.64 0.60 0.56 0.52 0.53 0.56 0.60
0.19 0.32 0.36 0.32 0.30 0.26 0.33 0.40 0.54 0.82 0.83 0.79 1.00 1.04 0.67 0.71 0.81 0.76 0.82 0.91 0.94 1.02 1.05 1.03 1.12 1.13 1.06 0.93 0.85 0.91 0.95 0.95 0.86 0.78 0.78 0.79 0.73 0.63 0.63 0.56 0.47 0.49 0.54 0.55
0.17 0.29 0.39 0.39 0.37 0.33 0.43 0.48 0.43 0.58 0.76 0.78 0.94 0.99 0.60 0.60 0.72 0.75 0.83 0.89 0.90 0.87 0.78 0.70 0.80 0.94 0.89 0.81 0.83 0.92 1.06 1.07 0.98 0.85 0.78 0.79 0.74 0.72 0.74 0.63 0.53 0.52 0.59 0.69
0.13 0.23 0.28 0.34 0.34 0.38 0.64 0.72 0.51 0.59 0.80 0.68 0.66 0.73 0.56 0.54 0.63 0.68 0.76 0.81 0.77 0.69 0.62 0.57 0.53 0.57 0.58 0.58 0.61 0.73 0.99 1.18 1.16 1.05 0.94 0.87 0.82 0.79 0.77 0.65 0.58 0.55 0.58 0.62
0.15 0.19 0.15 0.14 0.16 0.23 0.44 0.48 0.40 0.40 0.40 0.47 0.43 0.46 0.54 0.60 0.64 0.65 0.67 0.59 0.49 0.44 0.41 0.37 0.33 0.34 0.37 0.41 0.48 0.58 0.86 1.07 1.10 1.09 0.97 0.87 0.78 0.71 0.66 0.65 0.65 0.60 0.55 0.53
0.14 0.17 0.13 0.12 0.12 0.14 0.17 0.13 0.12 0.15 0.20 0.28 0.32 0.42 0.47 0.49 0.51 0.56 0.56 0.42 0.37 0.33 0.32 0.32 0.28 0.27 0.24 0.24 0.30 0.38 0.57 0.75 0.85 0.90 0.87 0.74 0.71 0.64 0.56 0.59 0.67 0.66 0.54 0.49
0.16 0.18 0.20 0.16 0.12 0.14 0.13 0.08 0.13 0.16 0.19 0.23 0.33 0.45 0.50 0.52 0.58 0.88 0.91 0.60 0.42 0.38 0.33 0.36 0.34 0.31 0.28 0.25 0.26 0.28 0.34 0.44 0.54 0.59 0.61 0.51 0.51 0.62 0.65 0.66 0.64 0.57 0.47 0.47
0.14 0.19 0.25 0.20 0.18 0.22 0.13 0.08 0.13 0.16 0.16 0.16 0.18 0.21 0.27 0.39 0.53 0.70 0.79 0.64 0.46 0.43 0.36 0.33 0.30 0.28 0.26 0.23 0.23 0.25 0.25 0.29 0.32 0.31 0.30 0.27 0.35 0.49 0.52 0.49 0.46 0.40 0.40 0.44
0.10 0.18 0.27 0.24 0.32 0.26 0.09 0.06 0.09 0.10 0.09 0.07 0.08 0.09 0.11 0.15 0.17 0.18 0.23 0.27 0.24 0.20 0.17 0.14 0.13 0.12 0.11 0.11 0.13 0.13 0.10 0.12 0.13 0.12 0.13 0.16 0.18 0.21 0.22 0.20 0.22 0.28 0.35 0.39
0.09 0.14 0.23 0.26 0.30 0.24 0.10 0.05 0.05 0.09 0.13 0.06 0.04 0.04 0.05 0.08 0.13 0.12 0.17 0.12 0.06 0.05 0.05 0.07 0.09 0.09 0.09 0.09 0.10 0.09 0.09 0.09 0.10 0.11 0.12 0.13 0.13 0.15 0.16 0.16 0.17 0.21 0.24 0.29
0.14 0.17 0.18 0.21 0.28 0.16 0.06 0.05 0.07 0.13 0.13 0.05 0.04 0.03 0.03 0.04 0.06 0.06 0.12 0.10 0.03 0.05 0.06 0.07 0.08 0.08 0.09 0.09 0.10 0.09 0.08 0.10 0.13 0.14 0.13 0.11 0.12 0.14 0.19 0.24 0.23 0.22 0.21 0.22
0.15 0.19 0.16 0.16 0.21 0.17 0.06 0.06 0.09 0.10 0.06 0.05 0.05 0.04 0.03 0.04 0.04 0.04 0.07 0.08 0.04 0.05 0.06 0.09 0.09 0.09 0.10 0.11 0.10 0.10 0.09 0.11 0.14 0.14 0.13 0.12 0.14 0.16 0.19 0.27 0.29 0.26 0.24 0.21
0.13 0.16 0.18 0.16 0.14 0.09 0.07 0.07 0.07 0.07 0.05 0.04 0.05 0.05 0.04 0.03 0.03 0.03 0.06 0.11 0.06 0.05 0.06 0.08 0.10 0.11 0.11 0.12 0.12 0.12 0.12 0.14 0.15 0.14 0.14 0.15 0.16 0.18 0.20 0.22 0.25 0.27 0.25 0.25
0.09 0.09 0.13 0.13 0.09 0.06 0.07 0.08 0.07 0.05 0.04 0.04 0.05 0.06 0.06 0.06 0.05 0.05 0.06 0.10 0.09 0.07 0.05 0.06 0.07 0.10 0.14 0.16 0.16 0.17 0.19 0.20 0.19 0.18 0.17 0.17 0.18 0.21 0.24 0.26 0.28 0.29 0.31 0.31
0.08 0.09 0.11 0.12 0.09 0.07 0.08 0.09 0.10 0.08 0.05 0.05 0.06 0.07 0.07 0.09 0.09 0.07 0.06 0.07 0.08 0.10 0.09 0.07 0.07 0.08 0.11 0.15 0.17 0.20 0.20 0.22 0.23 0.23 0.23 0.22 0.22 0.23 0.27 0.31 0.34 0.32 0.32 0.34
0.05 0.08 0.11 0.12 0.08 0.08 0.08 0.09 0.11 0.11 0.09 0.07 0.05 0.06 0.07 0.08 0.08 0.07 0.07 0.07 0.08 0.08 0.08 0.08 0.08 0.08 0.08 0.10 0.11 0.14 0.15 0.17 0.20 0.24 0.25 0.23 0.26 0.30 0.30 0.31 0.30 0.31 0.32 0.34